COSMOS 2251 DEB, 36622

Orbit data source: Space-Track

COSMOS 2251 DEB, 36622 is space debris in LEO originally from a launch on Wed, 16 Jun 1993 UTC launched from the Plesetsk Missile And Space Complex (PKMTR). The debris from Iridium 33, an American commercial communications satellite, has been tracked extensively since its accidental collision with the defunct Russian satellite Cosmos 2251 in 2009. This event, occurring at high speed in low Earth orbit (LEO), generated thousands of pieces of space debris, significantly increasing the risk of further collisions. The Iridium 33 debris cloud has impacted space traffic management and orbital debris mitigation strategies, making it a subject of ongoing study in space situational awareness.

Loading next visibility...
Identifier
36622, 1993-036BEL
Orbit
LEO
Country
Flag of CISCIS
Related business
Manufacturer
Unknown
Mission
Spacecraft
Bus & Motor
Unknown
Mass
Unknown
Launch date (UTC)
1993-06-16 (33 years ago)
Launch vehicle
Unknown
Launch site
Plesetsk Missile And Space Complex (PKMTR)
Object type
Payload
Rocket body
Debris
Shape & HBR
Unknown shape, 0.1 m
Radar Cross Section
Small (<0.1 m²)

Expand to show TLE details & history
Last TLE update: 1 day ago

TLE from 1 day ago
0 COSMOS 2251 DEB
1 36622U 93036BEL 26206.87759955  .00003591  00000-0  48563-3 0  9998
2 36622  74.0115  63.3176 0065942 142.3713 218.2103 14.77902024700743
Epoch: 2026-07-25T21:03Z
TLE epoch observation values (Epoch: 2026-07-25T21:03:44.601Z)
Latitude
-0.00005°
Longitude
163.79817°
Altitude
675.08 km
Speed
7.5 km/s
True Right ascension
04h 13m 16s
True Declination
0° 00' 00"
Sunlit
Object was in daylight at epoch
Visualization orbit readout
Latitude
Unknown
Longitude
Unknown
Altitude
Unknown
Speed
Unknown
Apparent Right ascension
Unknown
Apparent Declination
Unknown
Sunlit
N/A
Visualization observer readout
Local Sidereal Time
19:12:05
Azimuth
Unknown
Elevation
Unknown
Doppler factor
Unknown
Orbital elements
Apogee altitude
679.77 km
Perigee altitude
587.298 km
Semi-major axis
7,011.671 km
Eccentricity
0.00659
Inclination
74.0115°
RAAN
63.3176°
Arg. of periapsis
142.3713°
True anomaly
217.74591°
Mean anomaly
218.2103°
Eccentric anomaly
217.97781°
Mean motion
3.69667 °/min
Orbital period
97.38 mins
BSTAR
0.00048563

Documentation

Showing up to 5 results
|